Weather History for PAWD - November, 2013

Change the Weather History Date:

Friday, November 1, 2013

  Actual Average Record
Temperature  
Mean Temperature 42 °F -  
Max Temperature 46 °F 40 °F 80 °F (1969)
Min Temperature 39 °F 30 °F 5 °F (1975)
Degree Days  
Heating Degree Days 22    
Moisture  
Dew Point 38 °F    
Average Humidity 85    
Maximum Humidity 93    
Minimum Humidity 71    
Precipitation  
Precipitation 0.03 in - - ()
Sea Level Pressure  
Sea Level Pressure 29.84 in    
Wind  
Wind Speed 6 mph (NNE)    
Max Wind Speed 9 mph    
Max Gust Speed -    
Visibility 10 miles    
Events Rain    
Averages and records for this station are not official NWS values.
T = Trace of Precipitation, MM = Missing Value Source: NWS Daily Summary

Daily Weather History Graph

Daily Weather History Graph

Search for Another Location

Airport or City:

Trip Planner

Search our weather history database for the weather conditions in past years. The results will help you decide how hot, cold, wet, or windy it might be!

Date:

Astronomy

Nov. 01, 2013 Rise Set
Actual Time 9:21 AM AKDT 5:59 PM AKDT
Civil Twilight 8:36 AM AKDT 6:45 PM AKDT
Nautical Twilight 7:46 AM AKDT 7:34 PM AKDT
Astronomical Twilight 6:58 AM AKDT 8:23 PM AKDT
Moon 7:00 AM AKDT (11/1) 5:17 PM AKDT (11/1)
Length of Visible Light 10h 09m
Length of Day
8h 38m
Waning Crescent, 4% of the Moon is Illuminated
Nov 1
Waning Crescent
Nov 3
New
Nov 9
First Quarter
Nov 17
Full
Nov 25
Last Quarter

Hourly Weather History & Observations

Time (AKDT) Temp. Windchill Dew Point Humidity Pressure Visibility Wind Dir Wind Speed Gust Speed Precip Events Conditions
12:53 AM 43.0 °F 38.2 °F 39.0 °F 86% 29.63 in 10.0 mi NNE 8.1 mph - 0.00 in Rain Light Rain
1:53 AM 42.1 °F 40.2 °F 39.9 °F 92% 29.66 in 10.0 mi NNW 3.5 mph - 0.00 in Rain Light Rain
2:53 AM 42.1 °F 39.2 °F 39.0 °F 89% 29.68 in 10.0 mi North 4.6 mph - 0.01 in   Mostly Cloudy
3:53 AM 42.1 °F 37.7 °F 39.0 °F 89% 29.70 in 10.0 mi NNE 6.9 mph - N/A   Mostly Cloudy
4:53 AM 42.1 °F 37.7 °F 39.0 °F 89% 29.71 in 10.0 mi NNE 6.9 mph - 0.00 in Rain Light Rain
5:53 AM 42.1 °F 38.4 °F 39.0 °F 89% 29.73 in 10.0 mi NNE 5.8 mph - 0.00 in Rain Light Rain
6:28 AM 42.8 °F 39.3 °F 39.2 °F 87% 29.74 in 10.0 mi Variable 5.8 mph - 0.01 in Rain Light Rain
6:39 AM 42.8 °F 39.3 °F 39.2 °F 87% 29.74 in 10.0 mi NNE 5.8 mph - 0.01 in Rain Light Rain
6:53 AM 41.0 °F 37.1 °F 39.0 °F 93% 29.75 in 10.0 mi NNE 5.8 mph - 0.01 in Rain Light Rain
7:53 AM 42.1 °F 37.1 °F 39.0 °F 89% 29.77 in 10.0 mi NE 8.1 mph - 0.00 in Rain Light Rain
8:53 AM 41.0 °F 37.1 °F 37.9 °F 89% 29.79 in 10.0 mi North 5.8 mph - 0.01 in   Overcast
9:53 AM 41.0 °F 35.8 °F 37.9 °F 89% 29.82 in 10.0 mi NNE 8.1 mph - N/A   Overcast
10:53 AM 42.1 °F 37.7 °F 37.9 °F 85% 29.84 in 10.0 mi NNE 6.9 mph - N/A   Scattered Clouds
11:53 AM 44.1 °F 39.5 °F 37.9 °F 79% 29.86 in 10.0 mi NNE 8.1 mph - N/A   Scattered Clouds
12:53 PM 45.0 °F 41.2 °F 37.9 °F 76% 29.88 in 10.0 mi North 6.9 mph - N/A   Overcast
1:53 PM 45.0 °F 40.1 °F 37.9 °F 76% 29.90 in 10.0 mi NE 9.2 mph - N/A   Mostly Cloudy
2:53 PM 46.0 °F 41.4 °F 37.0 °F 71% 29.91 in 10.0 mi NNE 9.2 mph - N/A   Mostly Cloudy
3:53 PM 45.0 °F 41.8 °F 37.9 °F 76% 29.92 in 10.0 mi NNE 5.8 mph - N/A   Mostly Cloudy
4:53 PM 44.1 °F 41.5 °F 39.0 °F 82% 29.92 in 10.0 mi NNE 4.6 mph - N/A   Overcast
5:53 PM 44.1 °F 39.5 °F 37.9 °F 79% 29.93 in 10.0 mi NE 8.1 mph - N/A   Overcast
6:53 PM 43.0 °F 38.8 °F 37.9 °F 82% 29.95 in 10.0 mi NNE 6.9 mph - N/A   Overcast
7:53 PM 42.1 °F 38.4 °F 37.9 °F 85% 29.97 in 10.0 mi North 5.8 mph - N/A   Overcast
8:53 PM 42.1 °F 40.2 °F 37.9 °F 85% 29.98 in 10.0 mi North 3.5 mph - N/A   Overcast
9:53 PM 41.0 °F 37.1 °F 37.9 °F 89% 29.99 in 10.0 mi North 5.8 mph - N/A   Overcast
10:53 PM 39.9 °F 37.8 °F 37.0 °F 89% 29.99 in 10.0 mi NNW 3.5 mph - N/A   Overcast
11:53 PM 39.9 °F - 37.0 °F 89% 29.99 in 10.0 mi Calm Calm - N/A   Overcast